GROTON/TRUMBULL, CT current weather conditions

sailwx.info

Wind from 220 at 17 knots

Air temperature 7.0° C
Visibility: greater than 8.7 NM
Dewpoint 1.0° C

Last reported at 2019-Dec-06 19:10 UTC.
Time now 2019-Dec-06 20:26 UTC

Location: N 41°20' W 072°03'.
View on Google Maps.

See reports from other nearby stations

  
Tides and Currents Weather Stations Pressure Air Temp Water Temp Dewpoint Dewpoint Depression Visibility Wind Speed Wind Dir Waves Ship Positions
date/time (UTC)wind fromknots sea level pressurealtimeterstation pressurevisibilityair tempwater tempwave heightnotes
2019-Dec-06 20:05 220 14 8.7 8.0
2019-Dec-06 20:00 220 15 8.7 8.0
2019-Dec-06 19:56 230 12 8.7 7.2
2019-Dec-06 19:55 220 12 8.7 7.0
2019-Dec-06 19:50 220 12 8.7 7.0
2019-Dec-06 19:45 220 15 8.7 7.0
2019-Dec-06 19:40 220 13 8.7 7.0
2019-Dec-06 19:35 220 14 gusting 19 8.7 7.0
2019-Dec-06 19:30 220 14 8.7 7.0
2019-Dec-06 19:25 220 14 8.7 7.0
2019-Dec-06 19:20 220 15 8.7 7.0
2019-Dec-06 19:15 220 15 8.7 7.0
2019-Dec-06 19:10 220 17 8.7 7.0
2019-Dec-06 19:05 220 14 8.7 7.0
2019-Dec-06 19:00 220 17 8.7 7.0
2019-Dec-06 18:56 220 14 8.7 6.7
2019-Dec-06 18:55 220 14 8.7 7.0
2019-Dec-06 18:50 220 15 8.7 7.0
2019-Dec-06 18:45 230 12 8.7 7.0
2019-Dec-06 18:40 220 11 8.7 7.0
2019-Dec-06 18:35 220 10 gusting 15 8.7 7.0
2019-Dec-06 18:30 210 11 8.7 6.0
2019-Dec-06 18:20 210 13 8.7 6.0
2019-Dec-06 18:15 220 12 8.7 6.0
2019-Dec-06 18:10 210 12 8.7 6.0
2019-Dec-06 18:05 220 11 8.7 6.0
2019-Dec-06 17:56 220 13 8.7 5.6
2019-Dec-06 17:55 220 14 8.7 6.0
2019-Dec-06 17:50 220 12 8.7 6.0
2019-Dec-06 17:40 220 11 8.7 5.0
2019-Dec-06 17:30 230 12 8.7 5.0
2019-Dec-06 17:20 220 10 8.7 5.0
2019-Dec-06 17:10 220 12 8.7 5.0
2019-Dec-06 17:05 210 11 8.7 4.0
2019-Dec-06 17:00 220 12 8.7 4.0
2019-Dec-06 16:56 210 9 8.7 4.4
2019-Dec-06 16:55 210 12 8.7 4.0
2019-Dec-06 16:50 210 12 8.7 4.0
2019-Dec-06 16:45 210 12 8.7 4.0
2019-Dec-06 16:40 230 11 8.7 4.0
2019-Dec-06 16:35 220 11 8.7 4.0
2019-Dec-06 16:30 230 9 8.7 4.0
2019-Dec-06 16:25 220 12 8.7 4.0
2019-Dec-06 16:20 230 11 8.7 4.0
2019-Dec-06 16:15 220 12 8.7 4.0
2019-Dec-06 16:10 230 10 8.7 4.0
2019-Dec-06 16:00 220 11 8.7 4.0
2019-Dec-06 15:56 230 11 8.7 3.9
2019-Dec-06 15:55 230 11 8.7 4.0
2019-Dec-06 15:50 220 12 8.7 4.0
2019-Dec-06 15:45 220 11 8.7 4.0
2019-Dec-06 15:40 220 11 8.7 4.0
2019-Dec-06 15:35 230 10 8.7 4.0
2019-Dec-06 15:30 230 3 8.7 4.0
2019-Dec-06 15:25 260 4 8.7 3.0
2019-Dec-06 15:20 270 5 8.7 3.0
2019-Dec-06 15:15 290 4 8.7 3.0
2019-Dec-06 15:10 280 3 8.7 3.0
2019-Dec-06 15:05 8.7 3.0
2019-Dec-06 15:00 280 3 8.7 3.0
2019-Dec-06 14:56 290 2 8.7 2.2
2019-Dec-06 14:55 290 3 8.7 2.0
2019-Dec-06 14:50 270 3 8.7 2.0
2019-Dec-06 14:45 270 4 8.7 2.0
2019-Dec-06 14:40 280 4 8.7 2.0
2019-Dec-06 14:35 290 4 8.7 2.0
2019-Dec-06 14:30 270 4 8.7 2.0
2019-Dec-06 14:25 260 3 8.7 2.0
2019-Dec-06 14:20 260 4 8.7 2.0
2019-Dec-06 14:15 280 4 8.7 2.0
2019-Dec-06 14:10 260 5 8.7 2.0
2019-Dec-06 14:05 250 5 8.7 2.0
2019-Dec-06 14:00 250 5 8.7 2.0
2019-Dec-06 13:56 250 6 8.7 1.7
2019-Dec-06 13:55 260 5 8.7 2.0
2019-Dec-06 13:50 260 5 8.7 2.0
2019-Dec-06 13:45 260 5 8.7 1.0
2019-Dec-06 13:40 260 6 8.7 1.0
2019-Dec-06 13:35 260 6 8.7 1.0
2019-Dec-06 13:30 260 7 8.7 1.0
2019-Dec-06 13:25 260 7 8.7 1.0
2019-Dec-06 13:20 260 6 8.7 1.0
2019-Dec-06 13:15 260 5 8.7 1.0
2019-Dec-06 13:10 280 6 8.7 1.0
2019-Dec-06 13:05 270 5 8.7 1.0
2019-Dec-06 13:00 270 6 8.7 1.0
2019-Dec-06 12:56 280 6 8.7 0.6
2019-Dec-06 12:55 280 7 8.7 1.0
2019-Dec-06 12:50 280 6 8.7 1.0
2019-Dec-06 12:45 270 6 8.7 1.0
2019-Dec-06 12:40 270 6 8.7 1.0
2019-Dec-06 12:35 260 5 8.7 1.0
2019-Dec-06 12:30 260 7 8.7 1.0
2019-Dec-06 12:25 260 7 8.7 1.0
2019-Dec-06 12:20 270 7 8.7-0.0
2019-Dec-06 12:15 270 6 8.7-0.0
2019-Dec-06 12:10 260 7 8.7-0.0
2019-Dec-06 12:05 260 6 8.7-0.0
2019-Dec-06 12:00 280 7 8.7-0.0
2019-Dec-06 11:56 280 7 8.7-0.0
2019-Dec-06 11:55 290 8 8.7-0.0
2019-Dec-06 11:50 290 7 8.7-0.0
2019-Dec-06 11:45 280 7 8.7-0.0
2019-Dec-06 11:35 280 7 8.7-0.0
2019-Dec-06 11:30 280 7 8.7-0.0
2019-Dec-06 11:25 280 6 8.7-0.0
2019-Dec-06 11:20 280 6 8.7-0.0
2019-Dec-06 11:15 290 8 8.7-1.0
2019-Dec-06 11:10 290 8 8.7-1.0
2019-Dec-06 11:00 260 5 8.7-1.0
2019-Dec-06 10:56 280 5 8.7-0.6
2019-Dec-06 10:55 280 5 8.7-1.0
2019-Dec-06 10:50 290 6 8.7-1.0
2019-Dec-06 10:45 280 7 8.7-1.0
2019-Dec-06 10:40 270 6 8.7-1.0
2019-Dec-06 10:35 280 6 8.7-1.0
2019-Dec-06 10:30 280 7 8.7-1.0
2019-Dec-06 10:25 270 6 8.7-1.0
2019-Dec-06 10:15 270 5 8.7-1.0
2019-Dec-06 10:10 270 5 8.7-1.0
2019-Dec-06 10:05 280 5 8.7-1.0
2019-Dec-06 10:00 270 5 8.7-1.0
2019-Dec-06 09:56 280 4 8.7-1.1
2019-Dec-06 09:55 280 5 8.7-1.0
2019-Dec-06 09:50 270 4 8.7-1.0
2019-Dec-06 09:45 280 3 8.7-2.0
2019-Dec-06 09:40 270 3 8.7-1.0
2019-Dec-06 09:35 270 3 8.7-1.0
2019-Dec-06 09:30 280 4 8.7-2.0
2019-Dec-06 09:25 290 5 8.7-1.0
2019-Dec-06 09:20 270 5 8.7-1.0
2019-Dec-06 09:15 260 4 8.7-2.0
2019-Dec-06 09:10 260 5 8.7-2.0
2019-Dec-06 09:05 260 4 8.7-2.0
2019-Dec-06 09:00 250 4 8.7-1.0
2019-Dec-06 08:56 250 4 8.7-0.6
2019-Dec-06 08:55 250 3 8.7-1.0
2019-Dec-06 08:45 280 4 8.7-1.0
2019-Dec-06 08:40 270 5 8.7-1.0
2019-Dec-06 08:35 280 4 8.7-1.0
2019-Dec-06 08:30 260 4 8.7-1.0
2019-Dec-06 08:25 240 4 8.7-1.0
2019-Dec-06 08:20 260 4 8.7-1.0
2019-Dec-06 08:15 260 3 8.7-1.0
2019-Dec-06 08:10 270 5 8.7-1.0
2019-Dec-06 08:05 280 6 8.7-1.0
2019-Dec-06 08:00 290 5 8.7-1.0
2019-Dec-06 07:56 280 5 8.7-0.6
2019-Dec-06 07:55 270 5 8.7-1.0
2019-Dec-06 07:50 270 4 8.7-1.0
2019-Dec-06 07:45 290 6 8.7-1.0
2019-Dec-06 07:40 280 5 8.7-1.0
2019-Dec-06 07:35 280 5 8.7-1.0
2019-Dec-06 07:30 290 6 8.7-1.0
2019-Dec-06 07:25 300 6 8.7-1.0
2019-Dec-06 07:20 300 7 8.7-1.0
2019-Dec-06 07:15 310 7 8.7-1.0
2019-Dec-06 07:10 310 8 8.7-0.0
2019-Dec-06 07:05 300 8 8.7-1.0
2019-Dec-06 07:00 300 8 8.7-1.0
2019-Dec-06 06:56 290 6 8.7-0.0
2019-Dec-06 06:55 300 8 8.7-0.0
2019-Dec-06 06:50 300 8 8.7-1.0
2019-Dec-06 06:45 300 7 8.7-1.0
2019-Dec-06 06:40 290 8 8.7-1.0
2019-Dec-06 06:35 300 7 8.7-1.0
2019-Dec-06 06:30 310 8 8.7-1.0
2019-Dec-06 06:25 300 7 8.7-1.0
2019-Dec-06 06:20 290 5 8.7-1.0
2019-Dec-06 06:15 300 6 8.7-1.0
2019-Dec-06 06:10 310 6 8.7-1.0
2019-Dec-06 06:05 290 4 8.7-0.0
2019-Dec-06 06:00 290 5 8.7-0.0
2019-Dec-06 05:56 300 6 8.7-0.0
2019-Dec-06 05:55 290 6 8.7-0.0
2019-Dec-06 05:50 300 5 8.7-0.0
2019-Dec-06 05:45 280 8 8.7-0.0
2019-Dec-06 05:40 280 7 8.7-0.0
2019-Dec-06 05:35 300 8 8.7-0.0
2019-Dec-06 05:30 290 9 8.7-0.0
2019-Dec-06 05:25 290 11 8.7 1.0
2019-Dec-06 05:20 280 12 8.7 1.0
2019-Dec-06 05:15 280 10 8.7-0.0
2019-Dec-06 05:05 300 8 8.7-0.0
2019-Dec-06 05:00 300 10 8.7-0.0
2019-Dec-06 04:56 300 7 8.7-0.0
2019-Dec-06 04:55 300 8 8.7-0.0
2019-Dec-06 04:50 300 10 8.7-0.0
2019-Dec-06 04:45 290 11 8.7 1.0
2019-Dec-06 04:40 300 9 8.7-0.0
2019-Dec-06 04:35 300 11 8.7 1.0
2019-Dec-06 04:30 300 10 8.7 1.0
2019-Dec-06 04:25 300 10 8.7 1.0
2019-Dec-06 04:20 300 11 8.7 1.0
2019-Dec-06 04:15 300 15 8.7 1.0
2019-Dec-06 04:10 300 10 8.7-0.0
2019-Dec-06 04:05 300 13 8.7 1.0
2019-Dec-06 03:56 300 12 8.7 0.6
2019-Dec-06 03:55 300 10 8.7 1.0
2019-Dec-06 03:50 300 11 8.7 1.0
2019-Dec-06 03:45 310 11 8.7 1.0
2019-Dec-06 03:40 310 13 8.7 1.0
2019-Dec-06 03:35 310 13 8.7 1.0
2019-Dec-06 03:30 310 13 gusting 18 8.7 1.0
2019-Dec-06 03:25 310 12 8.7 1.0
2019-Dec-06 03:20 320 14 8.7 1.0
2019-Dec-06 03:15 320 9 8.7 1.0
2019-Dec-06 03:10 300 9 8.7 1.0
2019-Dec-06 03:05 320 10 8.7 1.0
2019-Dec-06 03:00 310 9 8.7 1.0
2019-Dec-06 02:56 300 12 gusting 18 8.7 0.6
2019-Dec-06 02:50 300 11 8.7 1.0
2019-Dec-06 02:45 290 11 8.7 1.0
2019-Dec-06 02:40 300 12 8.7 1.0
2019-Dec-06 02:35 300 13 8.7 1.0
2019-Dec-06 02:30 300 14 8.7 1.0
2019-Dec-06 02:25 280 13 gusting 18 8.7 1.0
2019-Dec-06 02:20 290 12 8.7 1.0
2019-Dec-06 02:15 290 13 gusting 20 8.7 1.0
2019-Dec-06 02:10 300 14 8.7 1.0
2019-Dec-06 02:05 280 15 8.7 1.0
2019-Dec-06 02:00 290 17 gusting 22 8.7 1.0
2019-Dec-06 01:56 280 17 gusting 26 8.7 0.6
2019-Dec-06 01:55 280 15 gusting 26 8.7 1.0
2019-Dec-06 01:50 280 12 8.7 1.0
2019-Dec-06 01:45 280 13 8.7 1.0
2019-Dec-06 01:40 290 14 8.7 1.0
2019-Dec-06 01:35 280 15 8.7 1.0
2019-Dec-06 01:30 290 13 gusting 20 8.7 1.0
2019-Dec-06 01:25 280 11 8.7 1.0
2019-Dec-06 01:20 280 11 8.7 1.0
2019-Dec-06 01:10 280 9 8.7-0.0
2019-Dec-06 01:05 280 9 8.7-0.0
2019-Dec-06 01:00 280 9 8.7-0.0
2019-Dec-06 00:56 270 6 8.7-0.0
2019-Dec-06 00:55 280 6 8.7-0.0
2019-Dec-06 00:50 270 6 8.7-0.0
2019-Dec-06 00:40 280 6 8.7-0.0
2019-Dec-06 00:35 260 7 8.7-0.0
2019-Dec-06 00:25 280 8 8.7-0.0
2019-Dec-06 00:20 290 7 8.7 1.0
2019-Dec-06 00:15 290 9 8.7 1.0
2019-Dec-06 00:10 290 9 8.7 1.0
2019-Dec-06 00:05 290 12 8.7 1.0
2019-Dec-06 00:00 290 13 8.7 1.0
2019-Dec-05 23:56 300 11 8.7 1.1
2019-Dec-05 23:55 290 12 8.7 1.0
2019-Dec-05 23:50 300 12 8.7 1.0
2019-Dec-05 23:45 280 8 8.7 1.0
2019-Dec-05 23:40 310 9 8.7 1.0
2019-Dec-05 23:35 300 11 8.7 1.0
2019-Dec-05 23:25 300 11 8.7 1.0
2019-Dec-05 23:20 300 17 8.7 1.0
2019-Dec-05 23:15 300 15 8.7 1.0
2019-Dec-05 23:10 300 11 gusting 18 8.7 1.0
2019-Dec-05 23:05 300 12 gusting 17 8.7 1.0
2019-Dec-05 23:00 310 14 8.7 2.0
2019-Dec-05 22:56 310 13 gusting 27 8.7 1.7
2019-Dec-05 22:55 310 15 8.7 2.0
2019-Dec-05 22:50 310 14 8.7 2.0
2019-Dec-05 22:45 320 19 8.7 2.0
2019-Dec-05 22:40 320 17 8.7 2.0
2019-Dec-05 22:35 320 16 gusting 22 8.7 2.0
2019-Dec-05 22:30 300 10 8.7 2.0
2019-Dec-05 22:25 290 10 8.7 2.0
2019-Dec-05 22:20 290 9 8.7 2.0
2019-Dec-05 22:15 300 9 8.7 2.0
2019-Dec-05 22:10 300 10 8.7 2.0
2019-Dec-05 22:05 300 12 8.7 2.0
2019-Dec-05 22:00 290 9 8.7 2.0
2019-Dec-05 21:56 290 11 8.7 2.2
2019-Dec-05 21:55 290 11 8.7 2.0
2019-Dec-05 21:50 290 11 8.7 2.0
2019-Dec-05 21:45 280 11 8.7 2.0
2019-Dec-05 21:40 280 9 8.7 2.0
2019-Dec-05 21:35 290 9 8.7 2.0
2019-Dec-05 21:30 290 8 8.7 2.0
2019-Dec-05 21:25 280 9 8.7 2.0
2019-Dec-05 21:20 270 7 8.7 2.0
2019-Dec-05 21:15 280 9 8.7 2.0
2019-Dec-05 21:10 290 10 8.7 2.0
2019-Dec-05 21:05 290 8 8.7 2.0
2019-Dec-05 21:00 290 9 8.7 2.0
2019-Dec-05 20:56 280 9 8.7 2.2
2019-Dec-05 20:55 280 10 8.7 2.0
2019-Dec-05 20:50 280 9 8.7 2.0
2019-Dec-05 20:45 280 7 8.7 2.0
2019-Dec-05 20:40 280 10 8.7 3.0
2019-Dec-05 20:35 290 12 8.7 3.0
2019-Dec-05 20:30 300 12 8.7 3.0
2019-Dec-05 20:25 290 12 8.7 3.0
2019-Dec-05 20:20 300 11 8.7 3.0
2019-Dec-05 20:15 290 10 8.7 3.0
2019-Dec-05 20:10 280 13 8.7 3.0
2019-Dec-05 20:05 300 14 8.7 3.0
2019-Dec-05 20:00 290 11 8.7 3.0
2019-Dec-05 19:56 280 13 8.7 3.3
2019-Dec-05 19:55 290 13 8.7 3.0
2019-Dec-05 19:50 290 11 8.7 3.0
2019-Dec-05 19:45 290 13 8.7 3.0
2019-Dec-05 19:40 290 14 8.7 3.0
2019-Dec-05 19:35 290 12 8.7 3.0
2019-Dec-05 19:30 290 12 8.7 3.0
2019-Dec-05 19:25 300 14 8.7 3.0
2019-Dec-05 19:20 310 12 8.7 3.0
2019-Dec-05 19:15 300 12 8.7 3.0
2019-Dec-05 19:10 320 13 8.7 3.0
2019-Dec-05 19:05 310 17 gusting 22 8.7 4.0
2019-Dec-05 19:00 310 11 gusting 16 8.7 4.0
2019-Dec-05 18:56 320 13 gusting 24 8.7 3.9
2019-Dec-05 18:55 320 14 gusting 19 8.7 4.0
2019-Dec-05 18:50 320 14 8.7 4.0
2019-Dec-05 18:45 310 12 8.7 4.0
2019-Dec-05 18:40 300 14 4.0
2019-Dec-05 18:35 290 16 -61.0
2019-Dec-05 18:25 310 16 gusting 20 8.7 4.0
2019-Dec-05 18:20 300 15 8.7 3.0
2019-Dec-05 18:15 300 11 8.7 3.0
2019-Dec-05 18:10 310 11 gusting 19 8.7 3.0
2019-Dec-05 18:05 300 17 8.7 3.0
2019-Dec-05 18:00 310 16 gusting 20 8.7 3.0
2019-Dec-05 17:56 310 14 gusting 25 8.7 3.3
2019-Dec-05 17:55 310 16 8.7 4.0
2019-Dec-05 17:50 290 16 8.7 4.0
2019-Dec-05 17:45 290 11 8.7 4.0
2019-Dec-05 17:40 280 10 8.7 4.0
2019-Dec-05 17:35 300 13 8.7 4.0
2019-Dec-05 17:30 290 14 8.7 4.0
2019-Dec-05 17:25 270 15 8.7 5.0
2019-Dec-05 17:20 290 13 8.7 5.0
2019-Dec-05 17:15 330 9 8.7 5.0
2019-Dec-05 17:10 290 11 8.7 4.0
2019-Dec-05 17:00 310 10 8.7 4.0
2019-Dec-05 16:56 310 8 gusting 17 8.7 3.9
2019-Dec-05 16:55 300 9 8.7 3.0
2019-Dec-05 16:50 300 13 8.7 3.0
2019-Dec-05 16:45 310 13 8.7 3.0
2019-Dec-05 16:25 280 15 gusting 20 8.7 4.0
2019-Dec-05 16:20 300 16 gusting 22 8.7 4.0
2019-Dec-05 16:15 280 15 8.7 4.0
2019-Dec-05 16:10 280 16 8.7 4.0
2019-Dec-05 16:05 290 15 8.7 4.0
2019-Dec-05 16:00 300 11 8.7 4.0
2019-Dec-05 15:56 310 13 gusting 20 8.7 4.4
2019-Dec-05 15:55 300 12 gusting 17 8.7 4.0
2019-Dec-05 15:50 300 9 8.7 4.0
2019-Dec-05 15:45 310 13 8.7 3.0
2019-Dec-05 15:40 300 13 8.7 4.0
2019-Dec-05 15:35 300 13 8.7 4.0
2019-Dec-05 15:30 310 13 8.7 4.0
2019-Dec-05 15:25 300 11 gusting 20 8.7 4.0
2019-Dec-05 15:20 290 12 8.7 4.0
2019-Dec-05 15:15 300 10 8.7 3.0
2019-Dec-05 15:10 290 12 8.7 3.0
2019-Dec-05 15:05 290 11 8.7 3.0
2019-Dec-05 15:00 300 12 8.7 3.0
2019-Dec-05 14:56 300 11 8.7 3.3
2019-Dec-05 14:55 300 11 8.7 3.0
2019-Dec-05 14:45 300 8 8.7 3.0
2019-Dec-05 14:40 300 10 gusting 15 8.7 3.0
2019-Dec-05 14:35 300 11 8.7 3.0
2019-Dec-05 14:30 300 9 8.7 3.0
2019-Dec-05 14:25 300 11 8.7 2.0
2019-Dec-05 14:20 310 9 8.7 2.0
2019-Dec-05 14:15 300 10 8.7 2.0
2019-Dec-05 14:10 300 5 8.7 2.0
2019-Dec-05 14:05 300 7 8.7 2.0
2019-Dec-05 14:00 300 7 8.7 2.0
2019-Dec-05 13:56 300 7 8.7 1.7
2019-Dec-05 13:55 300 8 8.7 2.0
2019-Dec-05 13:50 290 5 8.7 1.0
2019-Dec-05 13:45 280 6 8.7 1.0
2019-Dec-05 13:40 290 7 8.7 1.0
2019-Dec-05 13:35 270 5 8.7 1.0
2019-Dec-05 13:30 280 4 8.7-0.0
2019-Dec-05 13:25 300 5 7.8-0.0
2019-Dec-05 13:20 300 5 7.8-0.0
2019-Dec-05 13:15 310 3 7.8-0.0
2019-Dec-05 13:10 310 4 7.8-0.0
2019-Dec-05 13:05 310 5 7.8-0.0
2019-Dec-05 13:00 310 7 7.8-0.0
2019-Dec-05 12:56 310 6 7.8-0.0
2019-Dec-05 12:55 300 5 7.8-0.0
2019-Dec-05 12:50 290 4 7.0-0.0
2019-Dec-05 12:45 300 3 7.0-0.0
2019-Dec-05 12:40 300 3 7.0-0.0
2019-Dec-05 12:35 290 4 7.0-0.0
2019-Dec-05 12:30 300 4 7.0-0.0
2019-Dec-05 12:25 310 5 7.0-0.0
2019-Dec-05 12:15 310 6 7.8-0.0
2019-Dec-05 12:10 310 6 7.8-0.0
2019-Dec-05 12:05 300 6 7.8-0.0
2019-Dec-05 12:00 290 8 7.8-0.0
2019-Dec-05 11:56 290 7 7.8-0.0
2019-Dec-05 11:55 290 7 7.8-0.0
2019-Dec-05 11:45 290 8 7.8-0.0
2019-Dec-05 11:40 290 9 7.8-0.0
2019-Dec-05 11:35 300 8 7.8-0.0
2019-Dec-05 11:30 290 8 7.8-0.0
2019-Dec-05 11:25 290 8 7.8-0.0
2019-Dec-05 11:20 290 9 7.8-0.0
2019-Dec-05 11:15 290 8 7.8-0.0
2019-Dec-05 11:10 300 7 7.8-0.0
2019-Dec-05 11:05 300 6 7.8-0.0
2019-Dec-05 11:00 300 7 7.8-0.0
2019-Dec-05 10:56 300 6 6.9-0.6 Precipitation.
2019-Dec-05 10:55 300 6 7.0-1.0 Precipitation.
2019-Dec-05 10:50 300 8 7.0-1.0 Precipitation.
2019-Dec-05 10:45 300 8 7.0-1.0
2019-Dec-05 10:40 300 8 7.0-1.0
2019-Dec-05 10:35 300 6 7.0-1.0
2019-Dec-05 10:30 310 7 7.0-1.0
2019-Dec-05 10:25 300 7 7.0-1.0
2019-Dec-05 10:20 310 5 7.0-1.0
2019-Dec-05 10:15 310 5 7.0-1.0
2019-Dec-05 10:10 310 6 6.1-1.0
2019-Dec-05 10:05 320 5 6.1-1.0
2019-Dec-05 10:00 320 3 6.1-1.0
2019-Dec-05 09:56 320 4 6.1-0.6
2019-Dec-05 09:55 320 4 6.1-1.0
2019-Dec-05 09:50 320 5 6.1-1.0
2019-Dec-05 09:45 300 7 6.1-1.0
2019-Dec-05 09:40 310 6 6.1-1.0
2019-Dec-05 09:35 320 3 6.1-1.0
2019-Dec-05 09:30 320 5 6.1-1.0
2019-Dec-05 09:20 320 5 6.1-1.0
2019-Dec-05 09:15 320 6 5.2-1.0 Mist.
2019-Dec-05 09:10 320 5 6.1-1.0
2019-Dec-05 09:05 320 5 6.1-1.0
2019-Dec-05 09:00 320 4 6.1-1.0
2019-Dec-05 08:56 330 2 6.1-0.6
2019-Dec-05 08:55 330 3 6.1-1.0
2019-Dec-05 08:50 300 5 6.1-1.0
2019-Dec-05 08:45 280 7 6.1-1.0
2019-Dec-05 08:40 280 7 5.2-1.0 Mist.
2019-Dec-05 08:35 280 6 6.1-1.0
2019-Dec-05 08:30 280 7 6.1-1.0
2019-Dec-05 08:20 270 8 6.1-1.0
2019-Dec-05 08:15 270 7 6.1-1.0
2019-Dec-05 08:05 270 7 6.1-1.0
2019-Dec-05 08:00 270 7 6.1-1.0
2019-Dec-05 07:56 270 7 6.1-0.6
2019-Dec-05 07:45 280 7 6.1-1.0
2019-Dec-05 07:40 280 8 6.1-1.0
2019-Dec-05 07:35 280 7 6.1-1.0
2019-Dec-05 07:30 280 8 6.1-1.0
2019-Dec-05 07:25 280 8 6.1-1.0
2019-Dec-05 07:20 280 7 6.1-1.0
2019-Dec-05 07:10 280 7 7.0-1.0
2019-Dec-05 07:05 280 9 7.0-1.0
2019-Dec-05 07:00 280 8 7.0-1.0
2019-Dec-05 06:56 280 6 6.9-0.6
2019-Dec-05 06:50 280 8 7.0-1.0
2019-Dec-05 06:40 270 7 7.0-1.0
2019-Dec-05 06:35 270 7 7.0-1.0
2019-Dec-05 06:30 270 6 7.0-1.0
2019-Dec-05 06:25 270 7 7.0-1.0
2019-Dec-05 06:20 270 5 7.0-1.0
2019-Dec-05 06:15 270 6 7.0-1.0
2019-Dec-05 06:10 270 6 7.0-1.0
2019-Dec-05 06:05 280 6 7.0-1.0
2019-Dec-05 06:00 280 6 7.0-1.0
2019-Dec-05 05:56 280 6 6.9-0.6
2019-Dec-05 05:55 270 6 7.0-1.0
2019-Dec-05 05:50 280 8 7.8-1.0
2019-Dec-05 05:45 280 7 7.0-1.0
2019-Dec-05 05:40 280 6 7.0-1.0
2019-Dec-05 05:30 270 6 7.0-1.0
2019-Dec-05 05:25 270 6 7.0-1.0
2019-Dec-05 05:20 270 6 7.0-1.0
2019-Dec-05 05:15 270 5 7.0-1.0
2019-Dec-05 05:10 270 5 7.0-1.0
2019-Dec-05 05:05 270 6 7.0-1.0
2019-Dec-05 05:00 270 6 7.8-1.0
2019-Dec-05 04:56 270 6 7.8-1.1
2019-Dec-05 04:55 270 7 7.8-1.0
2019-Dec-05 04:50 270 6 7.8-1.0
2019-Dec-05 04:45 280 6 7.8-1.0
2019-Dec-05 04:40 280 5 7.8-1.0
2019-Dec-05 04:35 280 6 7.8-1.0
2019-Dec-05 04:25 280 7 8.7-1.0
2019-Dec-05 04:15 270 6 8.7-1.0
2019-Dec-05 04:05 270 7 8.7-1.0
2019-Dec-05 03:56 270 6 8.7-0.6
2019-Dec-05 03:40 260 6 8.7-1.0
2019-Dec-05 03:35 260 6 8.7-1.0
2019-Dec-05 03:30 280 5 8.7-1.0
2019-Dec-05 03:25 280 5 8.7-1.0
2019-Dec-05 03:20 280 5 8.7-1.0
2019-Dec-05 03:15 290 6 8.7-1.0
2019-Dec-05 03:10 300 6 8.7-1.0
2019-Dec-05 03:05 310 5 8.7-1.0
2019-Dec-05 03:00 310 5 8.7-1.0
2019-Dec-05 02:56 320 5 8.7-0.6
2019-Dec-05 02:55 320 4 8.7-0.0
2019-Dec-05 02:50 320 6 8.7-1.0
2019-Dec-05 02:45 320 6 8.7-0.0
2019-Dec-05 02:40 310 6 8.7-0.0
2019-Dec-05 02:35 310 6 8.7-0.0
2019-Dec-05 02:30 310 6 8.7-0.0
2019-Dec-05 02:25 310 6 8.7-0.0
2019-Dec-05 02:20 300 5 8.7-0.0
2019-Dec-05 02:15 290 5 8.7-0.0
2019-Dec-05 02:10 290 5 8.7 1.0
2019-Dec-05 02:05 300 6 8.7 1.0
2019-Dec-05 02:00 310 6 8.7 1.0
2019-Dec-05 01:56 310 6 8.7 1.1
2019-Dec-05 01:55 300 6 8.7 1.0
2019-Dec-05 01:50 290 7 8.7 1.0
2019-Dec-05 01:45 8.7 1.0
2019-Dec-05 01:40 8.7 1.0
2019-Dec-05 01:35 290 5 8.7 1.0
2019-Dec-05 01:30 310 6 8.7 1.0
2019-Dec-05 01:25 300 5 8.7 1.0
2019-Dec-05 01:20 300 5 8.7 1.0
2019-Dec-05 01:15 310 5 8.7 1.0
2019-Dec-05 01:10 310 6 8.7 1.0
2019-Dec-05 01:05 310 5 8.7 1.0
2019-Dec-05 01:00 310 6 8.7 1.0
2019-Dec-05 00:56 320 6 8.7 0.6
2019-Dec-05 00:55 320 6 8.7 1.0
2019-Dec-05 00:50 330 5 8.7 1.0
2019-Dec-05 00:45 320 7 8.7 1.0
2019-Dec-05 00:40 310 7 8.7 1.0
2019-Dec-05 00:35 310 6 8.7 1.0
2019-Dec-05 00:30 310 6 8.7 1.0
2019-Dec-05 00:25 320 5 8.7 1.0
2019-Dec-05 00:20 320 6 8.7 1.0
2019-Dec-05 00:15 320 4 8.7 1.0
2019-Dec-05 00:10 310 5 8.7 1.0
2019-Dec-05 00:05 320 6 8.7 1.0
2019-Dec-05 00:00 310 5 8.7 1.0
2019-Dec-04 23:56 310 5 8.7 1.1
2019-Dec-04 23:55 320 5 8.7 1.0
2019-Dec-04 23:50 290 5 8.7 1.0
2019-Dec-04 23:45 290 3 8.7 1.0
2019-Dec-04 23:40 290 4 8.7 1.0
2019-Dec-04 23:35 300 4 8.7 1.0
2019-Dec-04 23:30 310 4 8.7 1.0
2019-Dec-04 23:25 300 4 8.7 1.0
2019-Dec-04 23:20 290 5 8.7 1.0
2019-Dec-04 23:15 300 4 8.7 1.0
2019-Dec-04 23:05 280 4 8.7 1.0
2019-Dec-04 22:56 290 6 8.7 1.7
2019-Dec-04 22:55 290 7 8.7 2.0
2019-Dec-04 22:50 280 6 8.7 2.0
2019-Dec-04 22:45 290 7 8.7 2.0
2019-Dec-04 22:35 280 5 8.7 1.0
2019-Dec-04 22:25 290 5 8.7 1.0
2019-Dec-04 22:20 290 5 8.7 1.0
2019-Dec-04 22:15 290 5 8.7 1.0
2019-Dec-04 22:10 290 4 8.7 1.0
2019-Dec-04 22:00 300 5 8.7 1.0
2019-Dec-04 21:56 290 6 8.7 1.1
2019-Dec-04 21:55 290 6 8.7 1.0
2019-Dec-04 21:50 280 6 8.7 1.0
2019-Dec-04 21:40 290 6 8.7 1.0
2019-Dec-04 21:30 310 4 8.7 1.0
2019-Dec-04 21:25 300 5 8.7 1.0
2019-Dec-04 21:20 290 6 8.7 1.0
2019-Dec-04 21:15 280 5 8.7 1.0
2019-Dec-04 21:10 280 4 8.7 1.0
2019-Dec-04 21:00 260 4 8.7 1.0
2019-Dec-04 20:56 280 4 8.7 1.1
2019-Dec-04 20:55 270 4 8.7 1.0
2019-Dec-04 20:50 280 6 8.7 1.0
2019-Dec-04 20:45 290 5 8.7 1.0
2019-Dec-04 20:30 270 5 8.7 2.0
2019-Dec-04 20:25 280 6 8.7 2.0
2019-Dec-04 20:20 270 4 8.7 1.0
2019-Dec-04 20:15 260 5 8.7 1.0
2019-Dec-04 20:10 290 4 8.7 1.0
2019-Dec-04 20:05 280 4 8.7 1.0
2019-Dec-04 20:00 270 7 8.7 1.0